Regional Weather Roundup
Issued by NWS

Home | Current Version | Previous Version | Graphics & Text | Print | Product List | Glossary On
Versions: 1 2 3 4 5 6 7 8 9 10 11 12 13 14 15 16 17 18 19 20 21 22 23 24 25 26 27 28 29 30 31 32 33 34 35 36 37 38 39 40 41 42 43 44 45 46 47 48 49 50
000
ASUS43 KLSX 220307
RWRMO

WEATHER SUMMARY FOR MISSOURI
NATIONAL WEATHER SERVICE SPRINGFIELD MO
900 PM CST TUE FEB 21 2017

NOTE: "FAIR" INDICATES FEW OR NO CLOUDS BELOW 12,000 FEET WITH NO
       SIGNIFICANT WEATHER AND/OR OBSTRUCTIONS TO VISIBILITY.
       CURRENT SKY AND/OR WEATHER CONDITIONS ARE NOT AVAILABLE FOR
       CHILLICOTHE AND FARMINGTON.

MOZ001>031-035>038-043-044-053-054-220400-
...NORTHERN AND WESTERN MISSOURI...

CITY           SKY/WX    TMP DP  RH WIND       PRES   REMARKS
KANSAS CTY INT CLEAR     54  31  41 S6        29.89R
KANSAS C DTWN  CLEAR     54  37  52 CALM      29.89R
LEE`S SUMMIT   CLEAR     60  45  57 S6        29.89F
ST JOSEPH      CLEAR     47  39  74 SE7       29.87F
CHILLICOTHE      N/A     47  40  76 CALM      29.89S
KIRKSVILLE     CLEAR     54  50  86 S5        29.89F

$$
MOZ066>068-077>081-088>096-101>105-220400-
...SOUTHWEST MISSOURI...

CITY           SKY/WX    TMP DP  RH WIND       PRES   REMARKS
SPRINGFIELD    CLEAR     57  56  96 SE7       29.91F
JOPLIN         CLEAR     53  49  86 SE3       29.92R
BRANSON        CLOUDY    57  57 100 CALM      29.93S FOG

$$
MOZ032>034-039>042-045>050-055>058-069>072-220400-
...CENTRAL MISSOURI...

CITY           SKY/WX    TMP DP  RH WIND       PRES   REMARKS
COLUMBIA       CLOUDY    57  56  96 SE8       29.90F
JEFFERSON CITY PTCLDY    56  55  97 SE6       29.90F FOG
ROLLA          CLOUDY    58  58 100 NE6       29.91F FOG
SEDALIA        CLEAR     58  53  84 S6        29.90F
WHITEMAN AFB   CLEAR     55  52  92 CALM      29.88F
WARRENSBURG    CLEAR     55  46  71 S3        29.89S
OSAGE BEACH    PTCLDY    58  56  93 CALM      29.92F

$$
MOZ051-052-059>065-220400-
...EAST CENTRAL MISSOURI...

CITY           SKY/WX    TMP DP  RH WIND       PRES   REMARKS
ST LOUIS INTL  CLOUDY    59  56  89 N3        29.93R FOG
SPIRIT OF STL  CLOUDY    56  56 100 CALM      29.92S FOG
ST CHARLES     FOG       53  53 100 NW3       29.92R VSB 1/4

$$
MOZ072>076-082>087-097>100-106>115-220400-
...SOUTH CENTRAL AND SOUTHEAST MISSOURI...

CITY           SKY/WX    TMP DP  RH WIND       PRES   REMARKS
CAPE GIRARDEAU CLOUDY    57  55  93 SE5       29.92S
FARMINGTON     CLOUDY    56  54  93 CALM      29.92S
POPLAR BLUFF   CLOUDY    60  59  96 CALM      29.93R
WEST PLAINS    PTCLDY    55  54  96 N5        29.93R

$$


USA.gov is the U.S. government's official web portal to all federal, state and local government web resources and services.